CYGFM02

Last updated on Sat Dec 13 2025 00:02:23 GMT+0000 (Coordinated Universal Time)

1 41886U 16078C 25346.24388132 .00032299 00000+0 52311-3 0 9999 2 41886 34.9444 23.4939 0011076 205.9628 154.0540 15.51700404499990
UTC large
Height (km)
Speed (km/s)
/
Latitude / Longitude
Inclination (degrees)
Orbital Period (minutes)
Azimuth
Elevation
Range (km)
Doppler Factor

Next 0 passes for location: London (51.5072 / 0.1276)

Sorry there are no passes over London.